Time,TemperatureF,DewpointF,PressureIn,WindDirection,WindDirectionDegrees,WindSpeedMPH,WindSpeedGustMPH,Humidity,HourlyPrecipIn,Conditions,Clouds,dailyrainin,SoftwareType,DateUTC
2013-01-10 07:22:00,35.0,23.0,28.01,West,275,2.0,11.0,62,0.00,,,0.03,,2013-01-10 12:22:00,
2013-01-10 07:33:00,35.0,23.0,28.03,WNW,297,5.0,13.0,62,0.00,,,0.03,,2013-01-10 12:33:00,
2013-01-10 07:43:00,35.0,23.0,28.03,WNW,297,5.0,13.0,62,0.00,,,0.03,,2013-01-10 12:43:00,
2013-01-10 07:53:00,35.0,24.0,28.04,West,270,3.0,11.0,64,0.00,,,0.03,,2013-01-10 12:53:00,
2013-01-10 08:02:00,35.0,24.0,28.06,WNW,288,2.0,11.0,64,0.00,,,0.03,,2013-01-10 13:02:00,
2013-01-10 08:12:00,35.0,24.0,28.06,WNW,288,2.0,11.0,64,0.00,,,0.03,,2013-01-10 13:12:00,
2013-01-10 08:22:00,35.0,24.0,28.07,South,183,1.0,5.0,65,0.00,,,0.03,,2013-01-10 13:22:00,
2013-01-10 08:32:00,35.0,24.0,28.08,WNW,293,1.0,9.0,64,0.00,,,0.03,,2013-01-10 13:32:00,
2013-01-10 08:42:00,35.0,24.0,28.08,WNW,293,1.0,9.0,64,0.00,,,0.03,,2013-01-10 13:42:00,
2013-01-10 08:53:00,35.0,24.0,28.09,WSW,243,3.0,8.0,65,0.00,,,0.03,,2013-01-10 13:53:00,
2013-01-10 09:02:00,35.0,24.0,28.09,WNW,294,2.0,8.0,65,0.00,,,0.03,,2013-01-10 14:02:00,
2013-01-10 09:12:00,35.0,24.0,28.09,WNW,294,2.0,8.0,65,0.00,,,0.03,,2013-01-10 14:12:00,
2013-01-10 09:22:00,36.0,25.0,28.09,WSW,255,3.0,14.0,64,0.00,,,0.03,,2013-01-10 14:22:00,
2013-01-10 09:33:00,36.0,25.0,28.09,WSW,246,4.0,13.0,64,0.00,,,0.03,,2013-01-10 14:33:00,
2013-01-10 09:43:00,36.0,25.0,28.09,WSW,246,4.0,13.0,64,0.00,,,0.03,,2013-01-10 14:43:00,
2013-01-10 09:53:00,36.0,25.0,28.10,NNE,20,2.0,10.0,63,0.00,,,0.03,,2013-01-10 14:53:00,
2013-01-10 10:03:00,37.0,25.0,28.11,SW,214,4.0,12.0,62,0.00,,,0.03,,2013-01-10 15:03:00,
2013-01-10 10:12:00,37.0,25.0,28.11,SW,214,4.0,12.0,62,0.00,,,0.03,,2013-01-10 15:12:00,
2013-01-10 10:23:00,37.0,26.0,28.12,WSW,253,4.0,11.0,63,0.00,,,0.03,,2013-01-10 15:23:00,
2013-01-10 10:33:00,37.0,25.0,28.13,West,276,4.0,17.0,62,0.00,,,0.03,,2013-01-10 15:33:00,
2013-01-10 10:43:00,37.0,25.0,28.13,West,276,4.0,17.0,62,0.00,,,0.03,,2013-01-10 15:43:00,
2013-01-10 10:53:00,38.0,26.0,28.12,NNW,344,4.0,10.0,62,0.00,,,0.03,,2013-01-10 15:53:00,
2013-01-10 11:03:00,39.0,26.0,28.12,WSW,242,4.0,14.0,59,0.00,,,0.03,,2013-01-10 16:03:00,
2013-01-10 11:13:00,39.0,26.0,28.12,WSW,242,4.0,14.0,59,0.00,,,0.03,,2013-01-10 16:13:00,
2013-01-10 11:23:00,39.0,26.0,28.12,WSW,249,5.0,13.0,59,0.00,,,0.03,,2013-01-10 16:23:00,
2013-01-10 11:33:00,38.0,25.0,28.12,West,270,7.0,13.0,59,0.00,,,0.03,,2013-01-10 16:33:00,
2013-01-10 11:43:00,38.0,25.0,28.12,West,270,7.0,13.0,59,0.00,,,0.03,,2013-01-10 16:43:00,
2013-01-10 11:53:00,38.0,25.0,28.12,East,79,5.0,15.0,60,0.00,,,0.03,,2013-01-10 16:53:00,
2013-01-10 12:03:00,38.0,25.0,28.13,WNW,284,6.0,13.0,60,0.00,,,0.03,,2013-01-10 17:03:00,
2013-01-10 12:12:00,38.0,25.0,28.13,WNW,284,6.0,13.0,60,0.00,,,0.03,,2013-01-10 17:12:00,
2013-01-10 12:23:00,38.0,25.0,28.12,West,263,3.0,14.0,60,0.00,,,0.03,,2013-01-10 17:23:00,
2013-01-10 12:33:00,39.0,25.0,28.10,WNW,300,4.0,18.0,58,0.00,,,0.03,,2013-01-10 17:33:00,
2013-01-10 12:43:00,39.0,25.0,28.10,WNW,300,4.0,18.0,58,0.00,,,0.03,,2013-01-10 17:43:00,
2013-01-10 12:53:00,39.0,25.0,28.10,WNW,300,4.0,18.0,58,0.00,,,0.03,,2013-01-10 17:53:00,
2013-01-10 13:03:00,40.0,26.0,28.12,SW,229,5.0,13.0,56,0.00,,,0.03,,2013-01-10 18:03:00,
2013-01-10 13:12:00,41.0,27.0,28.12,West,267,2.0,10.0,56,0.00,,,0.03,,2013-01-10 18:12:00,
2013-01-10 13:23:00,41.0,27.0,28.12,West,267,2.0,10.0,56,0.00,,,0.03,,2013-01-10 18:23:00,
2013-01-10 13:33:00,40.0,26.0,28.12,WNW,284,3.0,22.0,57,0.00,,,0.03,,2013-01-10 18:33:00,
2013-01-10 13:43:00,39.0,25.0,28.13,North,354,4.0,20.0,58,0.00,,,0.03,,2013-01-10 18:43:00,
2013-01-10 13:53:00,39.0,25.0,28.13,North,354,4.0,20.0,58,0.00,,,0.03,,2013-01-10 18:53:00,
2013-01-10 14:03:00,39.0,25.0,28.15,WSW,246,3.0,21.0,58,0.00,,,0.03,,2013-01-10 19:03:00,
2013-01-10 14:13:00,38.0,25.0,28.15,WNW,291,5.0,12.0,59,0.00,,,0.03,,2013-01-10 19:13:00,
2013-01-10 14:23:00,38.0,25.0,28.15,WNW,291,5.0,12.0,59,0.00,,,0.03,,2013-01-10 19:23:00,
2013-01-10 14:33:00,39.0,25.0,28.15,WNW,287,6.0,16.0,57,0.00,,,0.03,,2013-01-10 19:33:00,
2013-01-10 14:43:00,39.0,25.0,28.15,WNW,287,6.0,16.0,57,0.00,,,0.03,,2013-01-10 19:43:00,
2013-01-10 14:53:00,39.0,25.0,28.15,NNW,346,3.0,16.0,57,0.00,,,0.03,,2013-01-10 19:53:00,
2013-01-10 15:03:00,39.0,25.0,28.16,NW,311,4.0,11.0,58,0.00,,,0.03,,2013-01-10 20:03:00,
2013-01-10 15:13:00,39.0,25.0,28.16,NW,311,4.0,11.0,58,0.00,,,0.03,,2013-01-10 20:13:00,
2013-01-10 15:24:00,39.0,25.0,28.17,West,269,3.0,11.0,58,0.00,,,0.03,,2013-01-10 20:24:00,
2013-01-10 15:33:00,39.0,26.0,28.18,WNW,290,1.0,7.0,59,0.00,,,0.03,,2013-01-10 20:33:00,
2013-01-10 15:43:00,39.0,26.0,28.18,WNW,290,1.0,7.0,59,0.00,,,0.03,,2013-01-10 20:43:00,
2013-01-10 15:53:00,38.0,25.0,28.17,NW,304,5.0,14.0,60,0.00,,,0.03,,2013-01-10 20:53:00,
2013-01-10 16:04:00,38.0,26.0,28.20,NE,34,4.0,10.0,61,0.00,,,0.03,,2013-01-10 21:04:00,
2013-01-10 16:13:00,37.0,25.0,28.20,NW,306,3.0,7.0,62,0.00,,,0.03,,2013-01-10 21:13:00,
2013-01-10 16:23:00,37.0,25.0,28.20,NW,306,3.0,7.0,62,0.00,,,0.03,,2013-01-10 21:23:00,
2013-01-10 16:33:00,36.0,25.0,28.20,ESE,105,4.0,12.0,64,0.00,,,0.03,,2013-01-10 21:33:00,
2013-01-10 16:43:00,36.0,25.0,28.20,ESE,105,4.0,12.0,64,0.00,,,0.03,,2013-01-10 21:43:00,
2013-01-10 16:53:00,35.0,24.0,28.21,West,279,4.0,11.0,63,0.00,,,0.03,,2013-01-10 21:53:00,
2013-01-10 17:04:00,34.0,23.0,28.22,NE,49,2.0,7.0,65,0.00,,,0.03,,2013-01-10 22:04:00,
2013-01-10 17:13:00,34.0,24.0,28.22,West,262,2.0,5.0,67,0.00,,,0.03,,2013-01-10 22:13:00,
2013-01-10 17:27:00,34.0,24.0,28.22,West,262,2.0,5.0,67,0.00,,,0.03,,2013-01-10 22:27:00,
2013-01-10 17:33:00,33.0,24.0,28.23,ESE,113,0.0,3.0,68,0.00,,,0.03,,2013-01-10 22:33:00,
2013-01-10 17:43:00,33.0,24.0,28.23,ESE,113,0.0,3.0,68,0.00,,,0.03,,2013-01-10 22:43:00,
2013-01-10 18:03:00,33.0,23.0,28.23,NW,308,5.0,13.0,67,0.00,,,0.03,,2013-01-10 23:03:00,
2013-01-10 18:13:00,33.0,24.0,28.24,SE,124,1.0,7.0,68,0.00,,,0.03,,2013-01-10 23:13:00,
2013-01-10 18:23:00,33.0,24.0,28.24,SE,124,1.0,7.0,68,0.00,,,0.03,,2013-01-10 23:23:00,
2013-01-10 18:33:00,33.0,24.0,28.24,WNW,285,2.0,4.0,69,0.00,,,0.03,,2013-01-10 23:33:00,
2013-01-10 18:43:00,33.0,24.0,28.24,WNW,285,2.0,4.0,69,0.00,,,0.03,,2013-01-10 23:43:00,
2013-01-10 18:53:00,32.0,23.0,28.23,SE,129,1.0,6.0,70,0.00,,,0.03,,2013-01-10 23:53:00,
2013-01-10 19:03:00,32.0,24.0,28.24,WNW,296,1.0,7.0,71,0.00,,,0.03,,2013-01-11 00:03:00,
2013-01-10 19:13:00,31.0,23.0,28.24,West,271,0.0,3.0,72,0.00,,,0.03,,2013-01-11 00:13:00,
2013-01-10 19:23:00,31.0,23.0,28.24,West,271,0.0,3.0,72,0.00,,,0.03,,2013-01-11 00:23:00,
2013-01-10 19:33:00,30.0,23.0,28.24,SW,233,1.0,3.0,74,0.00,,,0.03,,2013-01-11 00:33:00,
2013-01-10 19:43:00,30.0,23.0,28.24,SW,233,1.0,3.0,74,0.00,,,0.03,,2013-01-11 00:43:00,
2013-01-10 19:53:00,31.0,23.0,28.24,SSW,198,1.0,3.0,73,0.00,,,0.03,,2013-01-11 00:53:00,
2013-01-10 20:03:00,30.0,23.0,28.25,West,268,0.0,3.0,74,0.00,,,0.03,,2013-01-11 01:03:00,
2013-01-10 20:13:00,30.0,23.0,28.25,WNW,300,0.0,4.0,76,0.00,,,0.03,,2013-01-11 01:13:00,
2013-01-10 20:23:00,30.0,23.0,28.25,WNW,300,0.0,4.0,76,0.00,,,0.03,,2013-01-11 01:23:00,
2013-01-10 20:34:00,30.0,23.0,28.25,WNW,295,1.0,3.0,76,0.00,,,0.03,,2013-01-11 01:34:00,
2013-01-10 20:43:00,30.0,23.0,28.25,WNW,295,1.0,3.0,76,0.00,,,0.03,,2013-01-11 01:43:00,
2013-01-10 20:53:00,30.0,23.0,28.27,WSW,257,0.0,3.0,76,0.00,,,0.03,,2013-01-11 01:53:00,
2013-01-10 21:03:00,30.0,23.0,28.27,West,259,1.0,3.0,76,0.00,,,0.03,,2013-01-11 02:03:00,
2013-01-10 21:13:00,30.0,23.0,28.27,West,259,1.0,3.0,76,0.00,,,0.03,,2013-01-11 02:13:00,
2013-01-10 21:23:00,30.0,24.0,28.27,WSW,243,0.0,3.0,77,0.00,,,0.03,,2013-01-11 02:23:00,
2013-01-10 21:33:00,30.0,23.0,28.28,WSW,250,1.0,2.0,76,0.00,,,0.03,,2013-01-11 02:33:00,
2013-01-10 21:43:00,30.0,23.0,28.28,WSW,250,1.0,2.0,76,0.00,,,0.03,,2013-01-11 02:43:00,
2013-01-10 21:54:00,30.0,24.0,28.27,WSW,243,0.0,1.0,77,0.00,,,0.03,,2013-01-11 02:54:00,
2013-01-10 22:03:00,30.0,24.0,28.28,West,260,1.0,2.0,77,0.00,,,0.03,,2013-01-11 03:03:00,
2013-01-10 22:12:00,30.0,24.0,28.28,West,260,1.0,2.0,77,0.00,,,0.03,,2013-01-11 03:12:00,
2013-01-10 22:23:00,30.0,24.0,28.28,West,276,0.0,2.0,78,0.00,,,0.03,,2013-01-11 03:23:00,
2013-01-10 22:33:00,29.0,23.0,28.28,West,273,0.0,1.0,79,0.00,,,0.03,,2013-01-11 03:33:00,
2013-01-10 22:43:00,29.0,23.0,28.28,West,273,0.0,1.0,79,0.00,,,0.03,,2013-01-11 03:43:00,
2013-01-10 22:53:00,29.0,23.0,28.29,WSW,250,0.0,1.0,79,0.00,,,0.03,,2013-01-11 03:53:00,
2013-01-10 23:02:00,29.0,24.0,28.28,NW,304,0.0,3.0,80,0.00,,,0.03,,2013-01-11 04:02:00,
2013-01-10 23:12:00,29.0,24.0,28.28,NW,304,0.0,3.0,80,0.00,,,0.03,,2013-01-11 04:12:00,
2013-01-10 23:22:00,29.0,24.0,28.28,SW,233,0.0,0.0,80,0.00,,,0.03,,2013-01-11 04:22:00,
2013-01-10 23:33:00,28.0,23.0,28.27,SW,233,0.0,0.0,80,0.00,,,0.02,,2013-01-11 04:33:00,
2013-01-10 23:43:00,28.0,23.0,28.27,SW,233,0.0,0.0,80,0.00,,,0.02,,2013-01-11 04:43:00,
2013-01-10 23:53:00,28.0,23.0,28.27,WSW,239,0.0,1.0,81,0.00,,,0.02,,2013-01-11 04:53:00,